Temperature
17 17 17 17 16 16 16 16 16 16 16 16 17 17 17 17 17 17 17 17 17 16 16 16 16 16 16 16 16 16 16 16 16 16 16 16 16 16 16 16 16 16 15
17 17 17 17 16 16 16 16 16 16 16 16 16 16 16 16 16 16 16 16 16 16 16 16 16 16 16 16 16 16 16 16 16 16 16 16 16 16 16 16 16 16 15
17 17 17 16 16 16 16 16 16 16 16 16 16 16 16 16 16 16 16 16 16 16 16 16 16 16 16 16 16 16 16 16 16 16 16 16 16 16 16 16 16 16 15
17 17 16 16 16 16 16 16 16 16 16 16 16 16 16 16 16 16 16 16 16 16 16 16 16 16 16 16 16 16 16 16 16 16 16 16 16 16 16 16 15 15 15
17 16 16 16 16 16 16 16 16 16 16 16 16 16 16 16 16 16 16 16 16 16 15 16 16 16 16 16 16 16 16 16 16 16 16 16 16 16 15 15 15 15 15
16 16 16 16 16 16 16 16 15 15 16 16 17 16 16 16 16 16 16 16 16 16 16 15 15 15 16 16 16 16 16 16 16 16 16 16 16 16 15 15 15 15 15
16 16 16 16 16 16 15 15 15 15 16 16 16 16 16 16 16 16 16 16 16 16 15 15 15 15 15 15 15 15 15 15 15 15 15 15 15 15 15 15 15 15 15
16 16 16 16 16 15 15 15 15 16 16 16 17 17 17 17 16 16 16 16 16 16 16 15 15 15 15 15 15 15 15 15 15 15 15 15 15 15 15 15 15 15 15
16 16 16 16 15 15 15 15 15 15 16 16 16 17 18 18 17 16 16 16 16 16 16 15 15 15 15 15 15 15 15 15 15 15 15 15 15 15 15 15 15 15 15
16 16 16 15 15 15 15 15 15 15 15 16 16 16 16 17 18 17 16 16 15 15 15 16 15 15 15 15 15 15 15 15 15 15 15 15 15 15 15 15 15 15 15
16 16 16 15 15 15 15 15 15 15 15 16 16 16 16 16 17 17 18 17 16 16 16 15 15 15 15 15 14 15 15 15 15 15 15 15 15 15 15 14 15 15 15
16 16 15 15 15 15 15 15 15 15 15 15 15 16 16 17 17 17 17 17 17 16 15 15 15 15 15 15 15 15 15 15 15 14 14 14 14 14 14 14 14 15 15
16 16 15 15 15 15 15 15 15 15 14 14 15 15 16 16 16 17 17 17 17 17 16 15 15 15 15 15 15 15 14 14 14 14 14 14 14 14 14 14 14 14 14
16 16 16 15 15 15 15 15 14 14 14 14 14 15 15 15 16 16 16 17 17 17 16 16 15 15 15 15 14 14 14 14 14 14 14 14 14 14 14 14 14 14 14
16 16 16 15 15 15 15 15 14 14 14 14 14 14 15 15 15 15 15 16 16 17 17 16 16 15 15 14 14 14 14 14 14 14 14 14 14 14 14 14 14 14 14
16 16 16 16 15 15 15 15 14 14 14 14 14 14 14 15 15 15 15 15 15 16 17 17 16 15 15 15 14 14 14 14 14 14 14 14 14 14 14 14 14 14 14
16 16 16 16 16 15 15 15 15 14 14 14 14 14 14 14 14 15 15 15 15 15 16 16 16 15 14 14 14 14 14 14 14 14 14 14 14 14 14 14 14 14 14
17 16 16 16 16 15 15 15 15 15 15 14 14 14 14 14 14 14 14 14 15 15 15 15 15 15 14 14 14 14 14 14 14 14 14 14 14 14 14 14 14 14 14
17 16 16 16 16 16 15 15 15 15 15 15 14 14 14 14 14 14 14 14 14 14 14 14 15 15 14 14 14 14 14 14 14 14 14 15 15 15 15 14 14 14 14
17 16 16 16 16 16 15 15 15 15 15 15 14 14 14 14 14 14 14 14 14 14 14 14 14 15 14 14 14 14 14 14 14 15 14 14 14 14 15 15 14 14 14
16 16 16 16 16 16 16 15 15 15 15 15 14 14 14 14 14 14 14 14 13 13 14 14 14 14 14 14 14 14 14 14 14 14 14 14 14 14 14 14 14 14 14
17 16 16 16 16 16 16 16 15 15 15 14 14 14 14 14 14 14 14 14 13 13 13 14 14 14 14 14 14 14 14 14 14 15 14 14 14 14 14 14 14 14 14
16 16 16 16 16 16 16 15 15 15 14 14 14 14 14 14 14 13 14 14 13 13 13 13 13 13 13 13 13 13 13 13 13 14 13 13 14 14 14 14 13 13 13
16 16 16 15 15 15 15 15 15 15 14 14 14 13 13 13 13 13 13 13 13 13 13 13 13 13 12 12 12 12 12 12 12 12 12 12 13 13 13 13 13 13 13
16 15 15 15 15 15 15 15 15 14 14 14 13 13 13 13 13 13 12 12 12 12 12 12 12 12 12 12 12 12 12 12 12 13 13 12 13 13 13 13 13 13 13
15 15 15 15 15 15 14 14 14 13 13 13 13 12 12 12 12 12 12 12 12 12 12 11 11 12 12 12 11 11 11 11 12 12 13 12 12 12 12 13 13 12 12
Wind_Speed
5 5 4 3 2 2 3 2 2 2 2 2 2 2 2 2 2 3 8 9 7 7 7 8 8 7 8 8 8 8 8 9 9 9 9 9 9 9 8 8 7 7 8
5 5 4 3 2 2 1 1 2 2 2 2 2 3 2 3 4 2 5 9 8 7 6 7 8 8 8 8 9 9 9 9 10 10 10 10 10 10 9 9 8 8 8
6 5 4 3 3 2 3 2 2 2 2 3 3 3 3 2 3 3 3 4 7 9 7 7 7 7 8 9 9 9 10 10 10 11 11 11 11 11 10 10 9 9 9
7 5 4 3 3 3 3 2 2 2 2 2 3 2 3 3 3 3 3 4 4 6 8 8 7 7 7 8 8 9 10 11 11 11 12 12 12 12 12 12 11 11 10
7 6 4 4 5 3 3 2 2 2 3 3 4 3 3 3 3 3 2 3 4 4 5 9 8 7 7 7 7 7 9 10 11 11 12 12 12 13 13 13 13 12 12
8 6 5 5 5 3 3 2 2 1 2 3 3 3 2 3 2 3 3 3 4 4 4 5 7 7 7 6 6 6 7 8 10 10 11 12 12 13 14 14 14 14 14
8 6 5 5 4 3 3 4 4 5 4 3 3 4 3 3 3 3 2 2 4 3 3 3 4 4 7 8 7 6 6 8 9 10 11 12 12 12 13 14 14 15 15
9 8 6 5 5 4 4 4 4 3 4 4 3 4 4 5 3 3 3 3 2 3 3 3 3 3 3 5 7 6 6 7 8 8 10 12 12 13 13 14 14 14 15
9 7 7 5 5 5 5 5 5 5 4 4 4 3 3 3 5 5 3 3 2 2 2 3 4 4 4 4 5 7 6 6 6 7 8 9 11 11 12 13 14 15 15
9 8 8 6 5 4 4 6 5 4 4 4 4 3 3 3 2 4 5 5 3 3 1 1 3 4 4 4 4 5 5 4 4 4 5 7 9 11 12 12 13 14 15
9 9 8 7 6 5 4 3 4 4 4 4 4 4 4 3 4 3 3 4 5 4 3 2 2 2 3 3 4 6 7 5 4 4 3 4 5 7 9 10 11 12 14
8 9 9 7 7 5 5 5 4 5 3 3 3 4 4 4 4 4 3 5 4 4 3 2 3 3 3 3 4 8 6 6 5 5 4 4 4 4 5 6 8 10 11
8 9 9 8 7 6 6 5 5 4 4 4 5 4 4 4 4 4 4 4 3 4 4 5 4 4 4 3 5 7 7 6 5 5 5 5 4 4 4 5 7 8 8
8 10 9 9 8 7 7 6 6 6 4 5 5 4 4 4 4 4 5 4 5 5 5 5 4 5 4 4 5 6 6 8 7 6 6 6 6 6 7 7 8 8 8
8 10 10 9 9 8 7 7 6 6 5 6 6 6 6 4 4 4 4 5 6 5 4 6 6 5 6 5 5 7 6 8 8 8 9 9 10 10 10 10 10 10 10
9 10 10 10 9 9 8 8 7 7 7 6 5 5 6 6 5 5 5 5 6 6 6 2 4 4 4 5 7 8 8 8 11 12 12 12 12 12 13 13 13 13 13
10 11 11 10 10 10 9 9 8 7 8 8 7 8 8 7 6 5 5 6 6 6 7 5 4 4 5 7 5 8 9 10 11 16 14 14 14 14 15 15 15 16 16
11 11 11 11 11 10 10 11 10 10 10 9 9 9 9 7 8 7 6 7 6 6 7 8 6 6 7 8 8 8 10 11 11 12 15 15 16 16 17 17 17 18 18
11 11 11 11 11 11 11 11 11 10 10 10 10 10 10 9 9 8 8 8 7 7 7 8 8 6 7 7 8 9 10 9 12 11 15 18 19 19 19 19 20 20 20
11 10 10 10 10 10 10 10 10 10 10 10 10 10 10 10 10 10 9 9 8 8 8 9 9 7 7 7 7 8 9 8 9 10 10 11 15 18 20 21 21 21 21
11 10 10 10 10 9 9 10 10 10 10 10 10 10 10 9 8 8 8 8 9 9 9 9 9 8 8 6 7 8 9 8 8 9 9 9 10 12 14 19 22 23 23
10 10 10 10 10 9 7 8 9 9 10 10 10 10 10 10 10 10 10 9 9 10 10 9 9 9 8 8 7 8 9 9 10 7 7 9 9 10 11 14 15 19 21
10 9 9 9 9 7 6 9 10 9 9 9 9 9 9 9 10 10 11 13 12 12 11 11 12 11 9 8 8 10 9 10 11 9 8 11 11 11 12 14 12 15 19
8 8 8 8 7 6 7 8 9 10 9 9 9 9 9 8 7 7 8 10 11 11 12 12 12 12 10 8 8 10 11 11 12 12 11 12 12 12 12 13 14 18 20
6 6 6 6 5 4 5 6 7 8 8 9 8 8 8 7 4 4 7 9 10 10 10 11 11 11 10 9 8 9 10 10 12 11 9 11 12 12 12 12 14 17 20
5 5 4 4 4 3 3 5 7 6 6 6 6 6 5 5 3 4 8 9 10 10 9 8 9 12 13 13 13 12 11 11 11 11 9 9 11 12 12 11 10 10 13
Wind_Direction
163 151 146 154 178 149 164 182 164 139 169 171 170 155 140 121 125 133 125 144 161 171 177 179 182 184 182 179 180 182 180 181 178 176 173 172 172 172 171 169 169 170 169
163 164 166 164 166 176 129 188 152 171 182 146 159 143 150 129 123 144 141 146 156 169 181 181 184 188 190 190 191 189 188 189 189 187 186 186 185 183 183 183 182 182 180
167 175 165 174 162 150 158 182 169 186 177 166 148 140 144 136 128 132 141 155 157 161 172 179 183 190 198 198 198 198 198 197 197 197 196 196 195 194 194 194 194 192 190
171 181 171 168 160 177 180 162 206 196 169 172 151 152 145 143 139 152 157 161 164 161 163 171 178 186 199 201 199 204 206 205 203 203 203 204 204 204 204 202 202 202 201
174 185 177 152 182 185 189 202 154 215 170 174 166 157 161 150 152 155 150 158 154 167 161 161 175 187 194 196 198 206 211 210 210 210 209 210 211 212 212 211 210 210 210
178 186 179 173 193 186 185 175 154 185 186 190 165 135 149 144 160 144 171 152 161 171 172 165 179 182 187 187 189 203 214 215 216 215 214 215 216 216 217 217 217 215 215
175 192 184 174 202 185 192 186 189 174 187 180 181 166 153 146 132 144 148 157 150 157 159 171 195 187 178 177 183 195 208 217 221 221 222 221 219 219 219 219 219 219 220
181 189 189 189 188 177 188 190 208 214 183 202 223 198 181 164 172 150 154 156 143 149 158 157 153 192 218 182 164 185 203 210 216 220 224 223 222 223 221 221 223 225 226
186 188 188 197 186 202 185 196 201 217 203 196 237 247 225 189 159 160 158 148 149 155 156 145 164 173 195 188 177 174 187 200 211 220 223 223 223 224 227 229 230 231 231
188 187 189 191 195 198 175 199 193 206 220 205 191 249 309 2 245 168 175 168 167 181 167 191 161 169 188 181 157 149 167 184 196 207 213 218 221 225 231 235 236 235 235
191 190 188 190 193 199 187 199 176 220 219 231 211 200 207 214 254 254 184 177 185 183 177 191 182 176 170 174 177 153 165 178 182 186 196 209 219 227 234 238 243 243 242
189 189 190 191 196 196 185 193 196 201 231 237 247 227 222 223 225 232 221 212 203 186 189 195 207 187 190 184 146 131 161 178 188 196 199 200 211 227 236 241 248 251 252
188 186 191 193 197 194 193 195 199 213 208 210 230 234 240 250 255 252 253 236 226 202 196 216 203 199 200 189 150 151 173 183 193 199 206 211 220 231 242 249 254 258 260
190 181 188 193 197 196 197 196 208 204 207 216 226 240 245 239 242 245 254 255 240 226 208 213 199 207 211 211 155 193 187 185 203 215 224 230 236 242 247 253 256 258 259
188 183 189 194 198 199 201 202 216 211 209 220 218 213 235 229 235 242 250 260 267 263 233 196 215 200 212 216 176 225 225 191 211 228 235 239 243 248 251 254 256 256 256
192 186 192 197 200 201 202 210 216 212 218 223 234 235 237 235 224 233 240 247 257 270 274 236 212 211 216 236 195 230 243 202 225 232 237 242 245 247 250 252 253 254 254
194 196 198 201 202 203 205 210 223 214 220 222 221 221 227 243 237 232 232 238 242 248 258 257 234 216 218 251 227 236 243 241 237 217 227 239 246 249 251 252 253 253 253
199 200 203 204 206 208 208 212 219 219 221 223 223 224 225 222 225 243 241 240 242 249 255 262 254 233 222 233 239 247 251 247 255 215 216 235 244 248 250 252 252 253 254
201 203 205 210 213 214 214 216 220 223 225 228 227 226 227 228 228 232 235 242 240 235 242 254 253 246 239 233 237 243 249 253 260 242 219 229 238 243 247 249 250 250 251
201 204 207 212 217 219 221 222 221 224 227 230 231 233 234 232 231 233 233 240 246 248 242 249 254 247 242 234 240 251 250 236 249 258 251 242 235 235 241 245 246 247 248
206 208 212 215 218 220 223 222 223 224 226 229 231 233 236 237 243 242 247 239 236 241 244 244 250 251 248 243 245 251 258 262 252 253 257 254 244 242 238 236 238 242 244
210 211 215 217 219 225 204 207 227 233 230 232 234 234 233 226 229 230 251 267 269 252 253 255 254 254 257 256 259 265 269 269 269 255 256 263 261 261 258 256 236 228 234
207 213 217 220 224 227 191 197 214 236 239 238 238 239 242 236 222 231 225 228 243 252 258 261 263 264 264 261 265 262 262 269 274 278 273 272 268 265 263 262 240 229 235
205 209 214 217 222 221 183 197 206 225 240 239 238 238 240 249 241 240 244 240 241 239 238 242 255 262 268 274 263 263 271 265 264 261 259 266 270 267 268 268 247 234 239
203 205 209 211 214 203 169 192 207 220 229 236 238 238 238 239 229 223 246 254 256 255 244 235 244 257 271 273 268 265 263 263 267 267 253 259 271 275 274 271 263 236 235
188 192 194 200 201 202 156 181 206 223 229 233 231 231 225 233 232 219 244 252 257 261 265 252 240 245 249 246 231 240 257 263 270 273 268 259 270 277 278 272 269 265 251
Height
1568 1569 1570 1571 1573 1574 1575 1575 1576 1576 1577 1578 1579 1580 1581 1582 1582 1583 1583 1583 1584 1584 1585 1586 1587 1589 1590 1591 1592 1593 1594 1595 1596 1597 1598 1599 1600 1600 1601 1602 1602 1603 1604
1567 1569 1570 1571 1572 1573 1574 1575 1576 1576 1577 1578 1579 1579 1580 1581 1581 1582 1583 1583 1583 1584 1585 1586 1587 1588 1589 1590 1591 1592 1594 1595 1596 1597 1598 1599 1599 1600 1601 1602 1603 1603 1604
1567 1568 1570 1571 1572 1572 1573 1574 1575 1576 1577 1578 1578 1579 1580 1580 1581 1581 1583 1583 1584 1584 1584 1585 1586 1587 1588 1590 1591 1592 1593 1594 1595 1596 1597 1598 1599 1600 1601 1601 1602 1603 1604
1566 1568 1569 1570 1571 1572 1573 1574 1575 1576 1576 1577 1578 1579 1579 1580 1580 1581 1582 1583 1583 1584 1584 1584 1585 1586 1587 1589 1590 1591 1592 1593 1594 1595 1596 1597 1598 1599 1600 1601 1601 1602 1603
1565 1567 1569 1569 1570 1571 1573 1574 1574 1575 1576 1577 1577 1578 1579 1579 1580 1581 1582 1583 1583 1584 1584 1584 1585 1586 1587 1587 1588 1590 1591 1592 1593 1594 1595 1596 1597 1598 1599 1600 1600 1601 1602
1564 1566 1568 1568 1570 1571 1572 1572 1573 1573 1575 1576 1577 1578 1579 1579 1580 1580 1581 1582 1583 1583 1584 1584 1584 1585 1585 1586 1587 1588 1589 1590 1591 1592 1593 1594 1595 1596 1597 1598 1599 1600 1601
1563 1565 1567 1567 1568 1570 1571 1571 1572 1573 1574 1575 1577 1578 1578 1579 1579 1580 1581 1582 1582 1583 1583 1583 1584 1584 1585 1585 1585 1586 1587 1587 1588 1589 1590 1592 1593 1594 1595 1596 1597 1598 1599
1562 1564 1565 1566 1567 1568 1569 1570 1571 1573 1574 1575 1576 1577 1578 1579 1579 1580 1580 1581 1582 1582 1582 1583 1582 1583 1584 1584 1584 1584 1585 1585 1586 1587 1588 1589 1590 1591 1592 1593 1594 1595 1596
1560 1562 1563 1565 1565 1567 1568 1569 1570 1572 1573 1574 1575 1576 1577 1576 1578 1580 1580 1580 1581 1581 1582 1582 1582 1582 1582 1583 1583 1582 1583 1584 1584 1585 1586 1586 1587 1588 1589 1590 1591 1592 1593
1559 1561 1562 1563 1564 1566 1567 1568 1569 1571 1572 1573 1574 1574 1576 1576 1577 1578 1580 1580 1580 1580 1581 1582 1581 1581 1581 1581 1581 1581 1581 1582 1582 1583 1583 1584 1584 1585 1586 1587 1588 1589 1590
1557 1559 1560 1561 1562 1565 1566 1567 1567 1569 1571 1572 1573 1574 1575 1576 1577 1577 1578 1579 1580 1580 1580 1580 1581 1581 1580 1580 1580 1580 1580 1580 1581 1581 1581 1581 1582 1582 1583 1584 1585 1585 1586
1556 1557 1558 1559 1561 1563 1564 1565 1566 1568 1569 1570 1572 1573 1574 1575 1576 1576 1577 1578 1578 1579 1579 1579 1579 1579 1579 1580 1579 1578 1579 1579 1579 1579 1579 1579 1579 1580 1580 1581 1581 1581 1582
1554 1555 1557 1558 1560 1561 1562 1564 1565 1567 1567 1568 1570 1571 1573 1574 1574 1575 1576 1576 1577 1577 1577 1578 1578 1578 1578 1578 1578 1577 1577 1577 1577 1577 1577 1577 1577 1577 1577 1578 1578 1578 1578
1552 1553 1555 1556 1558 1559 1561 1562 1564 1565 1566 1567 1568 1569 1570 1572 1572 1573 1574 1575 1575 1575 1575 1576 1576 1576 1577 1577 1576 1576 1576 1575 1575 1575 1575 1575 1575 1575 1575 1575 1575 1575 1575
1550 1551 1553 1555 1556 1557 1559 1560 1562 1563 1564 1565 1567 1567 1568 1570 1570 1571 1572 1573 1574 1573 1573 1573 1574 1574 1574 1575 1574 1574 1574 1573 1573 1573 1573 1573 1572 1572 1572 1571 1571 1571 1571
1547 1549 1551 1553 1554 1556 1557 1558 1560 1561 1562 1563 1564 1565 1566 1567 1568 1569 1569 1570 1571 1572 1571 1571 1572 1572 1572 1572 1571 1571 1571 1570 1570 1570 1570 1570 1569 1569 1568 1568 1568 1567 1567
1544 1547 1549 1551 1552 1554 1555 1556 1558 1559 1559 1561 1561 1562 1563 1564 1565 1566 1567 1567 1568 1569 1569 1569 1569 1569 1568 1568 1569 1568 1568 1568 1568 1566 1566 1566 1565 1565 1565 1564 1564 1564 1563
1541 1544 1546 1548 1550 1551 1552 1554 1555 1556 1557 1558 1559 1559 1560 1561 1561 1563 1564 1564 1565 1565 1566 1566 1566 1566 1565 1564 1564 1564 1565 1565 1565 1564 1562 1562 1561 1561 1561 1560 1560 1560 1559
1538 1541 1543 1545 1547 1548 1550 1551 1552 1553 1554 1555 1556 1556 1557 1558 1558 1559 1559 1561 1561 1562 1562 1562 1562 1562 1562 1561 1561 1560 1560 1559 1560 1560 1558 1557 1556 1556 1556 1555 1555 1555 1554
1535 1537 1540 1542 1544 1545 1546 1547 1548 1549 1550 1551 1552 1553 1553 1554 1555 1555 1556 1556 1557 1558 1558 1558 1558 1558 1558 1557 1557 1557 1557 1556 1555 1555 1554 1553 1551 1551 1550 1550 1549 1549 1549
1531 1534 1536 1538 1539 1541 1542 1544 1544 1545 1546 1547 1547 1548 1549 1549 1550 1551 1552 1553 1553 1553 1554 1554 1554 1554 1554 1553 1553 1553 1552 1552 1551 1550 1549 1548 1548 1546 1545 1543 1543 1543 1542
1528 1530 1532 1534 1535 1537 1538 1539 1540 1541 1542 1542 1543 1543 1544 1544 1545 1545 1546 1547 1548 1549 1549 1549 1549 1549 1549 1549 1549 1548 1548 1547 1546 1546 1544 1543 1542 1541 1540 1539 1537 1536 1535
1524 1526 1528 1529 1530 1532 1533 1535 1535 1536 1537 1537 1538 1538 1539 1540 1540 1540 1540 1541 1542 1542 1543 1543 1543 1543 1543 1543 1543 1542 1541 1541 1540 1540 1538 1536 1536 1534 1533 1532 1531 1529 1528
1519 1521 1523 1525 1526 1527 1529 1530 1531 1531 1532 1532 1533 1533 1533 1534 1535 1535 1535 1536 1536 1536 1536 1537 1536 1537 1537 1537 1536 1536 1535 1534 1532 1532 1531 1529 1528 1527 1526 1525 1523 1521 1520
1516 1517 1519 1521 1522 1522 1523 1525 1526 1526 1526 1527 1527 1528 1528 1529 1529 1529 1530 1530 1530 1531 1531 1530 1530 1530 1530 1530 1530 1529 1529 1528 1526 1526 1525 1523 1522 1521 1519 1517 1516 1514 1512
1512 1514 1515 1517 1518 1518 1519 1520 1521 1521 1522 1522 1522 1523 1523 1523 1523 1524 1524 1524 1525 1525 1525 1524 1523 1522 1522 1522 1522 1522 1521 1521 1520 1519 1518 1517 1515 1514 1511 1510 1509 1507 1505